When you browse on this site, cookies collect data to enhance your experience and personalize the content and advertising you see.
Visit our Privacy Policy to learn more. By continuing to use the site, you agree to this use of cookies and data.
  • In Hungary
  • List of Countries
  • For 7 days
  • Water Temperature
  • Satellite Maps
  • Weather Map
  • News
  • Weather Widgets
  • user-avatar
    Login

    Hourly Weather Zagraniczna

    Today, 20 May, Monday

    Time Temperature Precipitation Wind Pressure Humidity
    00:00 +14°C° 0 mm 2 mps 728 mmHg 92%
    01:00 +14°C° 0 mm 1 mps 728 mmHg 91%
    02:00 +14°C° 0 mm 1 mps 727 mmHg 90%
    03:00 +14°C° 0 mm 1 mps 727 mmHg 89%
    04:00 +13°C° 0 mm 2 mps 727 mmHg 89%
    05:00 +15°C° 0 mm 2 mps 727 mmHg 83%
    06:00 +17°C° 0 mm 3 mps 727 mmHg 78%
    07:00 +20°C° 0 mm 3 mps 728 mmHg 71%
    08:00 +21°C° 0 mm 4 mps 728 mmHg 65%
    09:00 +21°C° 0 mm 4 mps 728 mmHg 59%
    10:00 +22°C° 0 mm 5 mps 728 mmHg 54%
    11:00 +23°C° 0 mm 5 mps 729 mmHg 52%
    12:00 +23°C° 0 mm 4 mps 729 mmHg 50%
    13:00 +22°C° 0 mm 4 mps 729 mmHg 52%
    14:00 +22°C° 0 mm 3 mps 729 mmHg 54%
    15:00 +22°C° 0 mm 3 mps 729 mmHg 56%
    16:00 +22°C° 0 mm 3 mps 729 mmHg 58%
    17:00 +20°C° 0 mm 3 mps 729 mmHg 64%
    18:00 +19°C° 0 mm 3 mps 729 mmHg 71%
    19:00 +17°C° 0 mm 3 mps 729 mmHg 77%
    20:00 +16°C° 0 mm 3 mps 729 mmHg 80%
    21:00 +15°C° 0 mm 2 mps 729 mmHg 84%
    22:00 +13°C° 0 mm 2 mps 729 mmHg 87%
    23:00 +13°C° 0 mm 2 mps 729 mmHg 87%

    Tomorrow, 21 May, Tuesday

    Time Temperature Precipitation Wind Pressure Humidity
    00:00 +12°C° 0 mm 2 mps 729 mmHg 88%
    01:00 +12°C° 0 mm 2 mps 729 mmHg 88%
    02:00 +12°C° 0 mm 1 mps 729 mmHg 88%
    03:00 +11°C° 0 mm 1 mps 728 mmHg 87%
    04:00 +11°C° 0 mm 1 mps 728 mmHg 87%
    05:00 +13°C° 0 mm 1 mps 728 mmHg 82%
    06:00 +14°C° 0 mm 1 mps 728 mmHg 78%
    07:00 +16°C° 0 mm 1 mps 728 mmHg 73%
    08:00 +18°C° 0.1 mm 1 mps 728 mmHg 70%
    09:00 +18°C° 0.1 mm 2 mps 728 mmHg 68%
    10:00 +19°C° 0.1 mm 2 mps 728 mmHg 66%
    11:00 +18°C° 1.3 mm 2 mps 728 mmHg 72%
    12:00 +18°C° 1.3 mm 2 mps 728 mmHg 79%
    13:00 +17°C° 1.3 mm 2 mps 727 mmHg 85%
    14:00 +17°C° 1.5 mm 2 mps 727 mmHg 87%
    15:00 +16°C° 1.5 mm 2 mps 727 mmHg 88%
    16:00 +16°C° 1.5 mm 2 mps 727 mmHg 90%
    17:00 +16°C° 1.6 mm 2 mps 727 mmHg 90%
    18:00 +14°C° 1.6 mm 3 mps 727 mmHg 91%
    19:00 +14°C° 1.6 mm 4 mps 727 mmHg 92%
    20:00 +14°C° 0.5 mm 4 mps 727 mmHg 91%
    21:00 +13°C° 0.5 mm 4 mps 727 mmHg 91%
    22:00 +13°C° 0.5 mm 5 mps 727 mmHg 91%
    23:00 +13°C° 0.9 mm 5 mps 727 mmHg 92%

    Day after tomorrow, 22 May, Wednesday

    Time Temperature Precipitation Wind Pressure Humidity
    00:00 +13°C° 0.9 mm 5 mps 727 mmHg 92%
    01:00 +13°C° 0.9 mm 5 mps 727 mmHg 92%
    02:00 +13°C° 0.5 mm 5 mps 727 mmHg 92%
    03:00 +13°C° 0.5 mm 4 mps 727 mmHg 92%
    04:00 +12°C° 0.5 mm 4 mps 727 mmHg 91%
    05:00 +13°C° 0.4 mm 5 mps 728 mmHg 91%
    06:00 +13°C° 0.4 mm 5 mps 728 mmHg 90%
    07:00 +14°C° 0.4 mm 5 mps 728 mmHg 89%
    08:00 +14°C° 0.4 mm 5 mps 728 mmHg 90%
    09:00 +14°C° 0.4 mm 4 mps 728 mmHg 91%
    10:00 +14°C° 0.4 mm 3 mps 729 mmHg 92%
    11:00 +14°C° 0.8 mm 3 mps 729 mmHg 91%
    12:00 +14°C° 0.8 mm 4 mps 729 mmHg 91%
    13:00 +15°C° 0.8 mm 4 mps 729 mmHg 90%
    14:00 +15°C° 0.6 mm 4 mps 729 mmHg 90%
    15:00 +15°C° 0.6 mm 4 mps 729 mmHg 90%
    16:00 +15°C° 0.6 mm 5 mps 729 mmHg 89%
    17:00 +15°C° 0.7 mm 5 mps 729 mmHg 91%
    18:00 +14°C° 0.7 mm 5 mps 729 mmHg 92%
    19:00 +14°C° 0.7 mm 5 mps 729 mmHg 93%
    20:00 +14°C° 1 mm 6 mps 730 mmHg 93%
    21:00 +14°C° 1 mm 6 mps 730 mmHg 94%
    22:00 +14°C° 1 mm 7 mps 731 mmHg 94%
    23:00 +14°C° 0.7 mm 6 mps 731 mmHg 95%

    23 May, Thursday

    Time Temperature Precipitation Wind Pressure Humidity
    00:00 +13°C° 0.7 mm 6 mps 731 mmHg 95%
    01:00 +13°C° 0.7 mm 5 mps 731 mmHg 96%
    02:00 +13°C° 0.9 mm 5 mps 731 mmHg 96%
    03:00 +13°C° 0.9 mm 5 mps 732 mmHg 96%
    04:00 +13°C° 0.9 mm 4 mps 732 mmHg 96%
    05:00 +13°C° 1.2 mm 5 mps 732 mmHg 96%
    06:00 +13°C° 1.2 mm 5 mps 733 mmHg 96%
    07:00 +13°C° 1.2 mm 5 mps 733 mmHg 96%
    08:00 +12°C° 1.7 mm 5 mps 734 mmHg 96%
    09:00 +10°C° 1.7 mm 5 mps 734 mmHg 95%
    10:00 +10°C° 1.7 mm 5 mps 734 mmHg 95%
    11:00 +10°C° 0.6 mm 5 mps 735 mmHg 95%
    12:00 +9°C° 0.6 mm 5 mps 735 mmHg 95%
    13:00 +9°C° 0.6 mm 5 mps 735 mmHg 95%
    14:00 +9°C° 0.3 mm 5 mps 735 mmHg 94%
    15:00 +9°C° 0.3 mm 5 mps 736 mmHg 94%
    16:00 +10°C° 0.3 mm 4 mps 736 mmHg 93%
    17:00 +10°C° 0.1 mm 4 mps 736 mmHg 93%
    18:00 +10°C° 0.1 mm 3 mps 736 mmHg 92%
    19:00 +10°C° 0.1 mm 3 mps 736 mmHg 92%
    20:00 +9°C° 0 mm 3 mps 736 mmHg 91%
    21:00 +9°C° 0 mm 3 mps 736 mmHg 91%
    22:00 +9°C° 0 mm 2 mps 736 mmHg 91%
    23:00 +8°C° 0 mm 2 mps 736 mmHg 91%

    24 May, Friday

    Time Temperature Precipitation Wind Pressure Humidity
    00:00 +8°C° 0 mm 2 mps 736 mmHg 91%
    01:00 +7°C° 0 mm 2 mps 736 mmHg 91%
    02:00 +7°C° 0 mm 2 mps 736 mmHg 91%
    03:00 +7°C° 0 mm 2 mps 736 mmHg 91%
    04:00 +7°C° 0 mm 2 mps 736 mmHg 91%
    05:00 +8°C° 0 mm 2 mps 736 mmHg 88%
    06:00 +10°C° 0 mm 2 mps 736 mmHg 84%
    07:00 +11°C° 0 mm 3 mps 736 mmHg 80%
    08:00 +13°C° 0 mm 3 mps 735 mmHg 72%
    09:00 +14°C° 0 mm 3 mps 735 mmHg 64%
    10:00 +16°C° 0 mm 3 mps 735 mmHg 56%
    11:00 +17°C° 0 mm 3 mps 735 mmHg 54%
    12:00 +17°C° 0 mm 3 mps 734 mmHg 52%
    13:00 +18°C° 0 mm 3 mps 734 mmHg 49%
    14:00 +18°C° 0 mm 3 mps 734 mmHg 50%
    15:00 +18°C° 0 mm 3 mps 733 mmHg 52%
    16:00 +18°C° 0 mm 2 mps 733 mmHg 53%
    17:00 +16°C° 0 mm 2 mps 733 mmHg 60%
    18:00 +15°C° 0 mm 1 mps 733 mmHg 66%
    19:00 +12°C° 0 mm 0 mps 732 mmHg 73%
    20:00 +12°C° 0 mm 1 mps 733 mmHg 74%
    21:00 +11°C° 0 mm 1 mps 733 mmHg 76%
    22:00 +10°C° 0 mm 1 mps 733 mmHg 77%
    23:00 +10°C° 0 mm 1 mps 733 mmHg 79%

    25 May, Saturday

    Time Temperature Precipitation Wind Pressure Humidity
    00:00 +9°C° 0 mm 1 mps 733 mmHg 81%
    01:00 +9°C° 0 mm 1 mps 733 mmHg 83%
    02:00 +8°C° 0 mm 1 mps 732 mmHg 83%
    03:00 +8°C° 0 mm 1 mps 732 mmHg 83%
    04:00 +8°C° 0 mm 1 mps 732 mmHg 84%
    05:00 +10°C° 0 mm 1 mps 733 mmHg 77%
    06:00 +12°C° 0 mm 1 mps 733 mmHg 71%
    07:00 +15°C° 0 mm 1 mps 733 mmHg 65%
    08:00 +16°C° 0 mm 0 mps 733 mmHg 59%
    09:00 +18°C° 0 mm 0 mps 733 mmHg 54%
    10:00 +20°C° 0 mm 0 mps 733 mmHg 48%
    11:00 +22°C° 0 mm 1 mps 733 mmHg 46%
    12:00 +22°C° 0 mm 1 mps 732 mmHg 45%
    13:00 +22°C° 0 mm 1 mps 732 mmHg 43%
    14:00 +22°C° 0 mm 1 mps 732 mmHg 45%
    15:00 +22°C° 0 mm 1 mps 732 mmHg 47%
    16:00 +22°C° 0 mm 1 mps 732 mmHg 49%
    17:00 +21°C° 0 mm 1 mps 732 mmHg 56%
    18:00 +19°C° 0 mm 1 mps 732 mmHg 63%
    19:00 +16°C° 0 mm 1 mps 732 mmHg 70%
    20:00 +15°C° 0 mm 1 mps 732 mmHg 72%
    21:00 +15°C° 0 mm 2 mps 732 mmHg 75%
    22:00 +14°C° 0 mm 2 mps 732 mmHg 77%
    23:00 +14°C° 0 mm 2 mps 732 mmHg 82%
    Show more